Location: Banff
(51.1667°N, 115.5667°W)
Time: 13:24:27
(UTC+00:00)

Vanguard 1 Rocket - Pass Details

Date: 05 December 2020
Orbit: 655 x 4222 km, 34.3° (Epoch: 23 January)

Event Time Altitude Azimuth Distance (km) Brightness Sun altitude
Rises 04:52:49 0° 188° (S) 7,218 11.8 -47.8°
Enters shadow 04:57:09 - 180° (S) 6,830 11.6 -48.4°
Reaches altitude 10° 04:59:07 10° 176° (S) 6,683 - -48.7°
Maximum altitude 05:14:51 23° 133° (SE) 6,280 - -50.8°
Drops below altitude 10° 05:31:35 10° 92° (E) 7,236 - -52.9°
Sets 05:38:40 0° 81° (E) 7,945 - -53.7°
